JQ2GLP-13 Weather Reports


time (UTC)temp
F
wind
direction
speed
knots
gust
knots
rain 1hr
in
rain 24hr
in
rain mn
in
humidity
%
barometer
mb
20260502123713 65 27 1.7 1.7 0.00 0.00 0.00 46 1007.4
20260502120712 66 203 0.0 0.0 0.00 0.00 0.00 46 1007.5
20260502110714 69 358 0.0 0.0 0.00 0.00 0.00 40 1006.5
20260502103714 70 15 0.9 2.6 0.00 0.00 0.00 36 1006.0
20260502100713 71 352 1.7 2.6 0.00 0.00 0.00 34 1005.3
20260502090713 73 7 1.7 2.6 0.00 0.00 0.00 32 1004.8
20260502070714 76 357 7.0 12.2 0.00 0.05 0.00 28 1003.0
20260502063713 77 14 6.1 11.3 0.00 0.07 0.00 28 1002.7
20260502060714 77 351 5.2 10.4 0.00 0.07 0.00 28 1002.5
20260502053714 78 348 7.8 13.0 0.00 0.07 0.00 28 1002.5
20260502050713 78 342 10.4 17.4 0.00 0.07 0.00 27 1002.4
20260502043715 78 0 7.8 10.4 0.00 0.07 0.00 30 1002.4
20260502040714 77 348 11.3 14.8 0.00 0.07 0.00 30 1002.5
20260502033715 76 343 10.4 15.6 0.00 0.07 0.00 30 1002.4
20260502030714 75 0 7.8 11.3 0.00 0.07 0.00 31 1002.7
20260502023714 74 353 8.7 13.9 0.00 0.07 0.00 31 1002.6
20260502020714 73 340 7.8 22.6 0.00 0.10 0.00 33 1002.5
20260502013710 73 338 8.7 10.4 0.00 0.12 0.00 32 1002.3
20260502010711 71 346 7.0 10.4 0.00 0.20 0.00 34 1002.2
20260502003711 70 338 7.8 12.2 0.00 0.24 0.00 38 1002.0
20260502000712 68 0 4.3 13.9 0.00 0.26 0.00 42 1002.0
20260501233712 66 5 5.2 7.8 0.00 0.29 0.00 46 1001.9
20260501230711 65 348 4.3 7.0 0.00 0.58 0.00 47 1001.9
20260501210712 59 13 5.2 7.0 0.00 0.82 0.00 61 1000.1
20260501203711 58 72 1.7 5.2 0.00 0.85 0.00 63 999.0
20260501200712 58 3 4.3 14.8 0.00 0.88 0.00 64 997.9
20260501193712 58 3 8.7 10.4 0.00 1.04 0.00 65 996.6
20260501190711 57 22 6.1 10.4 0.00 1.11 0.00 67 996.0
20260501180711 57 13 7.0 14.8 0.00 1.12 0.00 72 996.3
20260501173712 57 358 6.1 10.4 0.00 1.26 0.00 72 996.2
20260501170712 57 349 4.3 7.0 0.00 1.30 0.00 72 996.3
20260501163713 56 356 6.1 10.4 0.00 1.36 0.00 71 996.2
20260501160713 56 350 6.1 10.4 0.00 1.37 0.00 71 996.1
20260501153713 57 0 7.0 11.3 0.00 1.37 0.00 68 996.3
20260501150712 56 354 4.3 6.1 0.00 1.38 0.00 67 996.1
20260501143713 56 350 4.3 6.1 0.00 1.41 1.38 67 996.3